When you browse on this site, cookies collect data to enhance your experience and personalize the content and advertising you see.
Visit our Privacy Policy to learn more. By continuing to use the site, you agree to this use of cookies and data.
  • In Romania
  • List of Countries
  • For 7 days
  • Water Temperature
  • Satellite Maps
  • Weather Map
  • Weather Widgets
  • user-avatar
    Login

    Hourly Weather Acerno

    Today, 16 February, Saturday

    Time Temperature Precipitation Wind Pressure Humidity
    00:00 -2°C° 0 mm 3 mps 679 mmHg 82%
    01:00 -2°C° 0 mm 2 mps 680 mmHg 82%
    02:00 -2°C° 0 mm 2 mps 680 mmHg 83%
    03:00 -2°C° 0 mm 2 mps 680 mmHg 83%
    04:00 -3°C° 0 mm 2 mps 680 mmHg 84%
    05:00 -3°C° 0 mm 2 mps 680 mmHg 84%
    06:00 -3°C° 0 mm 2 mps 680 mmHg 84%
    07:00 -3°C° 0 mm 2 mps 680 mmHg 84%
    08:00 -1°C° 0 mm 2 mps 681 mmHg 78%
    09:00 +2°C° 0 mm 2 mps 681 mmHg 72%
    10:00 +3°C° 0 mm 3 mps 682 mmHg 67%
    11:00 +5°C° 0 mm 2 mps 682 mmHg 63%
    12:00 +6°C° 0 mm 2 mps 683 mmHg 59%
    13:00 +7°C° 0 mm 2 mps 683 mmHg 55%
    14:00 +7°C° 0 mm 2 mps 683 mmHg 55%
    15:00 +7°C° 0 mm 2 mps 682 mmHg 56%
    16:00 +7°C° 0 mm 2 mps 682 mmHg 57%
    17:00 +6°C° 0 mm 1 mps 682 mmHg 64%
    18:00 +5°C° 0 mm 1 mps 682 mmHg 71%
    19:00 +3°C° 0 mm 1 mps 681 mmHg 78%
    20:00 +2°C° 0 mm 1 mps 681 mmHg 79%
    21:00 +2°C° 0 mm 1 mps 681 mmHg 80%
    22:00 +1°C° 0 mm 1 mps 681 mmHg 81%
    23:00 +1°C° 0 mm 1 mps 681 mmHg 78%

    Tomorrow, 17 February, Sunday

    Time Temperature Precipitation Wind Pressure Humidity
    00:00 +1°C° 0 mm 1 mps 681 mmHg 75%
    01:00 +1°C° 0 mm 1 mps 680 mmHg 72%
    02:00 +1°C° 0 mm 1 mps 680 mmHg 67%
    03:00 +1°C° 0 mm 1 mps 680 mmHg 63%
    04:00 0°C° 0 mm 1 mps 680 mmHg 59%
    05:00 0°C° 0 mm 1 mps 680 mmHg 56%
    06:00 0°C° 0 mm 1 mps 680 mmHg 54%
    07:00 0°C° 0 mm 1 mps 680 mmHg 51%
    08:00 +3°C° 0 mm 1 mps 681 mmHg 47%
    09:00 +4°C° 0 mm 0 mps 681 mmHg 43%
    10:00 +7°C° 0 mm 0 mps 682 mmHg 39%
    11:00 +9°C° 0 mm 1 mps 682 mmHg 39%
    12:00 +9°C° 0 mm 1 mps 682 mmHg 38%
    13:00 +9°C° 0 mm 2 mps 682 mmHg 38%
    14:00 +10°C° 0 mm 1 mps 682 mmHg 42%
    15:00 +10°C° 0 mm 1 mps 681 mmHg 46%
    16:00 +9°C° 0 mm 1 mps 681 mmHg 50%
    17:00 +7°C° 0 mm 1 mps 681 mmHg 58%
    18:00 +6°C° 0 mm 1 mps 680 mmHg 67%
    19:00 +4°C° 0 mm 1 mps 680 mmHg 75%
    20:00 +2°C° 0 mm 0 mps 680 mmHg 78%
    21:00 +2°C° 0 mm 0 mps 680 mmHg 81%
    22:00 +1°C° 0 mm 0 mps 680 mmHg 84%
    23:00 +1°C° 0 mm 0 mps 679 mmHg 85%

    Day after tomorrow, 18 February, Monday

    Time Temperature Precipitation Wind Pressure Humidity
    00:00 +1°C° 0 mm 0 mps 679 mmHg 87%
    01:00 +1°C° 0 mm 0 mps 679 mmHg 88%
    02:00 0°C° 0 mm 0 mps 679 mmHg 89%
    03:00 0°C° 0 mm 0 mps 678 mmHg 90%
    04:00 0°C° 0 mm 0 mps 678 mmHg 90%
    05:00 0°C° 0 mm 0 mps 678 mmHg 90%
    06:00 +1°C° 0 mm 1 mps 678 mmHg 90%
    07:00 +1°C° 0 mm 1 mps 678 mmHg 90%
    08:00 +3°C° 0 mm 1 mps 679 mmHg 81%
    09:00 +5°C° 0 mm 1 mps 679 mmHg 73%
    10:00 +7°C° 0 mm 1 mps 680 mmHg 65%
    11:00 +8°C° 0 mm 1 mps 680 mmHg 61%
    12:00 +9°C° 0 mm 1 mps 680 mmHg 57%
    13:00 +9°C° 0 mm 2 mps 680 mmHg 53%
    14:00 +9°C° 0 mm 2 mps 680 mmHg 55%
    15:00 +8°C° 0 mm 2 mps 680 mmHg 57%
    16:00 +8°C° 0 mm 2 mps 679 mmHg 60%
    17:00 +7°C° 0 mm 1 mps 679 mmHg 67%
    18:00 +6°C° 0 mm 1 mps 678 mmHg 74%
    19:00 +4°C° 0 mm 1 mps 678 mmHg 81%
    20:00 +2°C° 0 mm 0 mps 678 mmHg 82%
    21:00 +2°C° 0 mm 0 mps 678 mmHg 83%
    22:00 +2°C° 0 mm 0 mps 678 mmHg 84%
    23:00 +1°C° 0 mm 0 mps 678 mmHg 85%

    19 February, Tuesday

    Time Temperature Precipitation Wind Pressure Humidity
    00:00 +1°C° 0 mm 0 mps 678 mmHg 86%
    01:00 +1°C° 0 mm 0 mps 678 mmHg 86%
    02:00 +1°C° 0 mm 0 mps 677 mmHg 86%
    03:00 0°C° 0 mm 0 mps 677 mmHg 87%
    04:00 0°C° 0 mm 0 mps 677 mmHg 87%
    05:00 0°C° 0 mm 0 mps 677 mmHg 87%
    06:00 0°C° 0 mm 0 mps 677 mmHg 87%
    07:00 +1°C° 0 mm 1 mps 677 mmHg 87%
    08:00 +3°C° 0 mm 1 mps 678 mmHg 77%
    09:00 +5°C° 0 mm 1 mps 679 mmHg 68%
    10:00 +7°C° 0 mm 1 mps 680 mmHg 58%
    11:00 +8°C° 0 mm 1 mps 680 mmHg 54%
    12:00 +8°C° 0 mm 2 mps 680 mmHg 50%
    13:00 +9°C° 0 mm 2 mps 680 mmHg 46%
    14:00 +9°C° 0 mm 2 mps 679 mmHg 48%
    15:00 +8°C° 0 mm 2 mps 679 mmHg 51%
    16:00 +8°C° 0 mm 2 mps 679 mmHg 54%
    17:00 +7°C° 0 mm 1 mps 679 mmHg 62%
    18:00 +5°C° 0 mm 1 mps 678 mmHg 70%
    19:00 +3°C° 0 mm 0 mps 678 mmHg 78%
    20:00 +2°C° 0 mm 0 mps 678 mmHg 79%
    21:00 +2°C° 0 mm 0 mps 678 mmHg 80%
    22:00 +1°C° 0 mm 0 mps 678 mmHg 82%
    23:00 +1°C° 0 mm 0 mps 678 mmHg 82%

    20 February, Wednesday

    Time Temperature Precipitation Wind Pressure Humidity
    00:00 +1°C° 0 mm 0 mps 678 mmHg 82%
    01:00 +1°C° 0 mm 0 mps 678 mmHg 82%
    02:00 +1°C° 0 mm 0 mps 678 mmHg 81%
    03:00 +1°C° 0 mm 1 mps 678 mmHg 80%
    04:00 +1°C° 0 mm 1 mps 677 mmHg 79%
    05:00 +1°C° 0 mm 1 mps 678 mmHg 77%
    06:00 +1°C° 0 mm 1 mps 678 mmHg 74%
    07:00 +1°C° 0 mm 1 mps 678 mmHg 72%
    08:00 +2°C° 0 mm 0 mps 679 mmHg 64%
    09:00 +5°C° 0 mm 0 mps 680 mmHg 55%
    10:00 +7°C° 0 mm 0 mps 681 mmHg 47%
    11:00 +9°C° 0 mm 0 mps 681 mmHg 44%
    12:00 +10°C° 0 mm 0 mps 681 mmHg 41%
    13:00 +12°C° 0 mm 1 mps 681 mmHg 38%
    14:00 +11°C° 0 mm 1 mps 681 mmHg 40%
    15:00 +11°C° 0 mm 1 mps 681 mmHg 42%
    16:00 +11°C° 0 mm 1 mps 681 mmHg 45%
    17:00 +9°C° 0 mm 1 mps 680 mmHg 54%
    18:00 +7°C° 0 mm 1 mps 680 mmHg 64%
    19:00 +5°C° 0 mm 1 mps 680 mmHg 73%
    20:00 +5°C° 0 mm 1 mps 680 mmHg 76%
    21:00 +4°C° 0 mm 1 mps 680 mmHg 80%
    22:00 +4°C° 0 mm 1 mps 680 mmHg 83%
    23:00 +4°C° 0 mm 1 mps 680 mmHg 84%

    21 February, Thursday

    Time Temperature Precipitation Wind Pressure Humidity
    00:00 +4°C° 0 mm 1 mps 680 mmHg 85%
    01:00 +3°C° 0 mm 1 mps 680 mmHg 86%
    02:00 +3°C° 0 mm 1 mps 679 mmHg 86%
    03:00 +3°C° 0 mm 1 mps 679 mmHg 87%
    04:00 +3°C° 0 mm 1 mps 679 mmHg 87%
    05:00 +3°C° 0 mm 1 mps 679 mmHg 87%
    06:00 +3°C° 0 mm 1 mps 679 mmHg 87%
    07:00 +2°C° 0 mm 1 mps 679 mmHg 88%
    08:00 +4°C° 0 mm 1 mps 680 mmHg 79%
    09:00 +7°C° 0 mm 1 mps 681 mmHg 70%
    10:00 +9°C° 0 mm 1 mps 681 mmHg 61%
    11:00 +10°C° 0 mm 1 mps 681 mmHg 56%
    12:00 +11°C° 0 mm 1 mps 681 mmHg 50%
    13:00 +12°C° 0 mm 1 mps 681 mmHg 44%
    14:00 +12°C° 0 mm 1 mps 681 mmHg 46%
    15:00 +11°C° 0 mm 1 mps 681 mmHg 48%
    16:00 +11°C° 0 mm 1 mps 681 mmHg 50%
    17:00 +9°C° 0 mm 1 mps 680 mmHg 59%
    18:00 +7°C° 0 mm 1 mps 680 mmHg 67%
    19:00 +4°C° 0 mm 0 mps 679 mmHg 75%
    20:00 +4°C° 0 mm 0 mps 679 mmHg 76%
    21:00 +4°C° 0 mm 0 mps 679 mmHg 77%
    22:00 +3°C° 0 mm 0 mps 679 mmHg 79%
    23:00 +3°C° 0 mm 0 mps 679 mmHg 79%
    Show more